When you browse on this site, cookies collect data to enhance your experience and personalize the content and advertising you see.
Visit our Privacy Policy to learn more. By continuing to use the site, you agree to this use of cookies and data.
  • In United Kingdom
  • List of Countries
  • For 7 days
  • Water Temperature
  • Weather Map
  • Weather Widgets
  • user-avatar
    Login

    Hourly Weather Milicz

    Today, 25 August, Sunday

    Time Temperature Precipitation Wind Pressure Humidity
    00:00 +20°C° 0 mm 3 mps 758 mmHg 64%
    01:00 +20°C° 0 mm 3 mps 758 mmHg 71%
    02:00 +20°C° 0 mm 3 mps 758 mmHg 74%
    03:00 +19°C° 0 mm 3 mps 758 mmHg 76%
    04:00 +19°C° 0 mm 3 mps 757 mmHg 78%
    05:00 +20°C° 0 mm 4 mps 757 mmHg 75%
    06:00 +20°C° 0 mm 4 mps 757 mmHg 72%
    07:00 +21°C° 0 mm 4 mps 758 mmHg 65%
    08:00 +22°C° 0 mm 4 mps 758 mmHg 61%
    09:00 +25°C° 0 mm 5 mps 758 mmHg 57%
    10:00 +26°C° 0 mm 5 mps 758 mmHg 53%
    11:00 +27°C° 0 mm 5 mps 757 mmHg 51%
    12:00 +28°C° 0 mm 4 mps 757 mmHg 49%
    13:00 +29°C° 0 mm 4 mps 757 mmHg 47%
    14:00 +29°C° 0 mm 4 mps 757 mmHg 48%
    15:00 +30°C° 0 mm 4 mps 757 mmHg 48%
    16:00 +30°C° 0 mm 3 mps 756 mmHg 49%
    17:00 +28°C° 0 mm 3 mps 756 mmHg 54%
    18:00 +27°C° 0 mm 3 mps 756 mmHg 59%
    19:00 +25°C° 0 mm 3 mps 757 mmHg 65%
    20:00 +25°C° 0 mm 3 mps 756 mmHg 66%
    21:00 +24°C° 0 mm 3 mps 756 mmHg 68%
    22:00 +24°C° 0 mm 3 mps 756 mmHg 70%
    23:00 +22°C° 0 mm 3 mps 756 mmHg 73%

    Tomorrow, 26 August, Monday

    Time Temperature Precipitation Wind Pressure Humidity
    00:00 +22°C° 0 mm 3 mps 757 mmHg 76%
    01:00 +21°C° 0 mm 3 mps 757 mmHg 79%
    02:00 +21°C° 0 mm 3 mps 756 mmHg 81%
    03:00 +20°C° 0 mm 3 mps 756 mmHg 84%
    04:00 +20°C° 0 mm 3 mps 756 mmHg 87%
    05:00 +20°C° 0 mm 3 mps 756 mmHg 85%
    06:00 +21°C° 0 mm 3 mps 756 mmHg 83%
    07:00 +22°C° 0 mm 3 mps 756 mmHg 81%
    08:00 +24°C° 0 mm 3 mps 756 mmHg 75%
    09:00 +26°C° 0 mm 3 mps 756 mmHg 68%
    10:00 +28°C° 0 mm 3 mps 756 mmHg 62%
    11:00 +29°C° 0 mm 3 mps 756 mmHg 57%
    12:00 +31°C° 0 mm 3 mps 756 mmHg 52%
    13:00 +33°C° 0 mm 3 mps 756 mmHg 47%
    14:00 +33°C° 0 mm 3 mps 755 mmHg 45%
    15:00 +33°C° 0 mm 3 mps 755 mmHg 44%
    16:00 +32°C° 0 mm 2 mps 755 mmHg 43%
    17:00 +31°C° 0 mm 2 mps 755 mmHg 48%
    18:00 +29°C° 0 mm 2 mps 755 mmHg 53%
    19:00 +28°C° 0 mm 2 mps 755 mmHg 58%
    20:00 +27°C° 0 mm 2 mps 755 mmHg 61%
    21:00 +26°C° 0 mm 3 mps 755 mmHg 65%
    22:00 +25°C° 0 mm 3 mps 755 mmHg 69%
    23:00 +25°C° 0 mm 3 mps 755 mmHg 72%

    Day after tomorrow, 27 August, Tuesday

    Time Temperature Precipitation Wind Pressure Humidity
    00:00 +24°C° 0 mm 3 mps 755 mmHg 74%
    01:00 +24°C° 0 mm 3 mps 755 mmHg 77%
    02:00 +22°C° 0 mm 3 mps 755 mmHg 79%
    03:00 +22°C° 0 mm 3 mps 755 mmHg 81%
    04:00 +23°C° 0 mm 2 mps 754 mmHg 82%
    05:00 +22°C° 0 mm 3 mps 755 mmHg 80%
    06:00 +24°C° 0 mm 3 mps 755 mmHg 77%
    07:00 +25°C° 0 mm 3 mps 755 mmHg 75%
    08:00 +27°C° 0 mm 3 mps 755 mmHg 68%
    09:00 +29°C° 0 mm 3 mps 755 mmHg 61%
    10:00 +32°C° 0 mm 4 mps 755 mmHg 55%
    11:00 +33°C° 0 mm 3 mps 755 mmHg 49%
    12:00 +34°C° 0 mm 3 mps 755 mmHg 44%
    13:00 +35°C° 0 mm 3 mps 755 mmHg 39%
    14:00 +35°C° 0 mm 3 mps 754 mmHg 38%
    15:00 +35°C° 0 mm 3 mps 754 mmHg 38%
    16:00 +35°C° 0 mm 3 mps 754 mmHg 37%
    17:00 +33°C° 0 mm 3 mps 754 mmHg 42%
    18:00 +31°C° 0 mm 3 mps 753 mmHg 47%
    19:00 +29°C° 0 mm 3 mps 753 mmHg 52%
    20:00 +28°C° 0 mm 3 mps 754 mmHg 56%
    21:00 +27°C° 0 mm 4 mps 754 mmHg 59%
    22:00 +27°C° 0 mm 4 mps 754 mmHg 63%
    23:00 +26°C° 0 mm 4 mps 754 mmHg 65%

    28 August, Wednesday

    Time Temperature Precipitation Wind Pressure Humidity
    00:00 +25°C° 0 mm 3 mps 754 mmHg 68%
    01:00 +24°C° 0 mm 3 mps 754 mmHg 70%
    02:00 +24°C° 0.1 mm 3 mps 754 mmHg 74%
    03:00 +22°C° 0.1 mm 3 mps 753 mmHg 77%
    04:00 +21°C° 0.1 mm 3 mps 753 mmHg 80%
    05:00 +22°C° 0 mm 3 mps 753 mmHg 78%
    06:00 +24°C° 0 mm 3 mps 753 mmHg 75%
    07:00 +25°C° 0 mm 3 mps 753 mmHg 73%
    08:00 +27°C° 0 mm 3 mps 753 mmHg 66%
    09:00 +29°C° 0 mm 3 mps 753 mmHg 58%
    10:00 +31°C° 0 mm 3 mps 753 mmHg 51%
    11:00 +33°C° 0 mm 3 mps 753 mmHg 46%
    12:00 +34°C° 0 mm 3 mps 753 mmHg 42%
    13:00 +35°C° 0 mm 3 mps 753 mmHg 38%
    14:00 +35°C° 0 mm 3 mps 752 mmHg 39%
    15:00 +35°C° 0 mm 3 mps 752 mmHg 39%
    16:00 +35°C° 0 mm 3 mps 752 mmHg 40%
    17:00 +33°C° 0 mm 3 mps 752 mmHg 46%
    18:00 +30°C° 0 mm 2 mps 752 mmHg 52%
    19:00 +28°C° 0 mm 2 mps 751 mmHg 57%
    20:00 +28°C° 0.1 mm 2 mps 752 mmHg 59%
    21:00 +27°C° 0.1 mm 2 mps 752 mmHg 62%
    22:00 +26°C° 0.1 mm 2 mps 752 mmHg 64%
    23:00 +26°C° 0.1 mm 2 mps 752 mmHg 67%

    29 August, Thursday

    Time Temperature Precipitation Wind Pressure Humidity
    00:00 +25°C° 0.1 mm 2 mps 752 mmHg 70%
    01:00 +24°C° 0.1 mm 2 mps 752 mmHg 72%
    02:00 +24°C° 0 mm 2 mps 752 mmHg 74%
    03:00 +24°C° 0 mm 2 mps 751 mmHg 75%
    04:00 +23°C° 0 mm 2 mps 751 mmHg 76%
    05:00 +24°C° 0 mm 2 mps 751 mmHg 74%
    06:00 +25°C° 0 mm 2 mps 751 mmHg 72%
    07:00 +26°C° 0 mm 2 mps 751 mmHg 69%
    08:00 +27°C° 0 mm 2 mps 751 mmHg 63%
    09:00 +29°C° 0 mm 2 mps 751 mmHg 56%
    10:00 +31°C° 0 mm 2 mps 752 mmHg 49%
    11:00 +32°C° 0 mm 2 mps 751 mmHg 45%
    12:00 +34°C° 0 mm 2 mps 751 mmHg 42%
    13:00 +35°C° 0 mm 3 mps 751 mmHg 38%
    14:00 +34°C° 0 mm 3 mps 751 mmHg 38%
    15:00 +34°C° 0 mm 3 mps 751 mmHg 39%
    16:00 +34°C° 0 mm 3 mps 751 mmHg 39%
    17:00 +31°C° 0 mm 2 mps 751 mmHg 44%
    18:00 +30°C° 0 mm 2 mps 751 mmHg 49%
    19:00 +28°C° 0 mm 2 mps 751 mmHg 54%
    20:00 +27°C° 0 mm 2 mps 751 mmHg 56%
    21:00 +26°C° 0 mm 2 mps 752 mmHg 59%
    22:00 +26°C° 0 mm 2 mps 752 mmHg 61%
    23:00 +25°C° 0.2 mm 2 mps 752 mmHg 66%

    30 August, Friday

    Time Temperature Precipitation Wind Pressure Humidity
    00:00 +24°C° 0.2 mm 3 mps 752 mmHg 70%
    01:00 +24°C° 0.2 mm 3 mps 752 mmHg 75%
    02:00 +22°C° 0.8 mm 3 mps 753 mmHg 80%
    03:00 +22°C° 0.8 mm 4 mps 753 mmHg 85%
    04:00 +21°C° 0.8 mm 4 mps 753 mmHg 90%
    05:00 +21°C° 0.2 mm 4 mps 753 mmHg 90%
    06:00 +21°C° 0.2 mm 4 mps 754 mmHg 89%
    07:00 +21°C° 0.2 mm 4 mps 754 mmHg 89%
    08:00 +21°C° 0 mm 4 mps 755 mmHg 84%
    09:00 +22°C° 0 mm 4 mps 755 mmHg 80%
    10:00 +23°C° 0 mm 4 mps 756 mmHg 75%
    11:00 +25°C° 0 mm 4 mps 756 mmHg 67%
    12:00 +26°C° 0 mm 4 mps 756 mmHg 59%
    13:00 +27°C° 0 mm 4 mps 756 mmHg 50%
    14:00 +27°C° 0 mm 4 mps 756 mmHg 49%
    15:00 +27°C° 0 mm 4 mps 755 mmHg 48%
    16:00 +27°C° 0 mm 4 mps 755 mmHg 47%
    17:00 +25°C° 0 mm 3 mps 755 mmHg 50%
    18:00 +24°C° 0 mm 3 mps 755 mmHg 54%
    19:00 +21°C° 0 mm 2 mps 755 mmHg 58%
    20:00 +21°C° 0 mm 2 mps 756 mmHg 59%
    21:00 +20°C° 0 mm 2 mps 756 mmHg 60%
    22:00 +19°C° 0 mm 2 mps 756 mmHg 61%
    23:00 +19°C° 0 mm 2 mps 756 mmHg 63%
    Show more